DLH8VR EKCH-EDDF

Flight info

Callsign DLH8VR
Flight time N/A
Altitude 34000
Route NEXEN T503 GIMRU DCT MICOS DCT RIMET/N0463F310 T157 KOKEB/N0449F230 T157 KERAX KERAX5A
Aircraft A306/H-SDE3FGHIRWY/LB1

Departure

Time 2026-05-06 14:54
Airport Copenhagen Kastrup Airport (EKCH)

Arrival

Time N/A
Airport Frankfurt Main Airport (EDDF)
Time Latitude Longitude Altitude Speed Heading
2026-05-06 14:29 55.62624 12.64405 29 ft 0 kts 66°
2026-05-06 14:42 55.62623 12.64404 30 ft 1 kts 66°
2026-05-06 14:42 55.62614 12.64364 30 ft 4 kts 66°
2026-05-06 14:43 55.62603 12.64321 28 ft 3 kts 66°
2026-05-06 14:43 55.62595 12.64286 28 ft 4 kts 67°
2026-05-06 14:43 55.62584 12.64244 28 ft 4 kts 58°
2026-05-06 14:43 55.62569 12.64212 28 ft 2 kts 33°
2026-05-06 14:44 55.62550 12.64184 26 ft 4 kts 65°
2026-05-06 14:44 55.62549 12.64143 26 ft 4 kts 116°
2026-05-06 14:44 55.62562 12.64105 27 ft 4 kts 123°
2026-05-06 14:45 55.62580 12.64055 28 ft 1 kts 123°
2026-05-06 14:47 55.62578 12.64061 27 ft 4 kts 123°
2026-05-06 14:47 55.62540 12.64162 29 ft 14 kts 123°
2026-05-06 14:48 55.62487 12.64301 30 ft 14 kts 126°
2026-05-06 14:48 55.62420 12.64458 30 ft 18 kts 127°
2026-05-06 14:48 55.62341 12.64668 30 ft 21 kts 123°
2026-05-06 14:48 55.62257 12.64790 30 ft 13 kts 178°
2026-05-06 14:49 55.62226 12.64778 30 ft 0 kts 202°
2026-05-06 14:50 55.62181 12.64735 30 ft 15 kts 211°
2026-05-06 14:50 55.62050 12.64585 30 ft 27 kts 213°
2026-05-06 14:50 55.61887 12.64512 30 ft 24 kts 169°
2026-05-06 14:50 55.61718 12.64563 30 ft 25 kts 178°
2026-05-06 14:51 55.61567 12.64441 30 ft 26 kts 213°
2026-05-06 14:51 55.61400 12.64249 30 ft 31 kts 212°
2026-05-06 14:51 55.61221 12.64043 30 ft 30 kts 214°
2026-05-06 14:51 55.61051 12.63849 30 ft 28 kts 212°
2026-05-06 14:52 55.60890 12.63668 28 ft 27 kts 213°
2026-05-06 14:52 55.60741 12.63490 30 ft 25 kts 216°
2026-05-06 14:52 55.60606 12.63312 30 ft 23 kts 217°
2026-05-06 14:52 55.60485 12.63144 30 ft 17 kts 216°
2026-05-06 14:53 55.60394 12.63177 30 ft 13 kts 133°
2026-05-06 14:53 55.60352 12.63298 32 ft 8 kts 106°
2026-05-06 14:53 55.60355 12.63365 32 ft 4 kts 63°
2026-05-06 14:53 55.60429 12.63483 30 ft 29 kts 41°
2026-05-06 14:54 55.60759 12.63996 32 ft 97 kts 41°
2026-05-06 14:54 55.61420 12.65021 31 ft 154 kts 40°
2026-05-06 14:54 55.62348 12.66419 312 ft 188 kts 41°
2026-05-06 14:54 55.63409 12.67902 1139 ft 200 kts 41°
2026-05-06 14:55 55.64578 12.69452 1715 ft 221 kts 40°
2026-05-06 14:55 55.65917 12.71217 1903 ft 258 kts 41°
2026-05-06 14:55 55.67380 12.73190 2684 ft 265 kts 40°
2026-05-06 14:55 55.68794 12.75198 3898 ft 260 kts 41°
2026-05-06 14:56 55.69976 12.77539 5083 ft 252 kts 60°
2026-05-06 14:56 55.70505 12.80436 6223 ft 253 kts 81°
2026-05-06 14:56 55.70405 12.83578 7085 ft 263 kts 104°
2026-05-06 14:56 55.69511 12.86448 7925 ft 274 kts 131°
2026-05-06 14:57 55.67959 12.88447 8865 ft 280 kts 154°
2026-05-06 14:57 55.66129 12.89684 9851 ft 284 kts 162°
2026-05-06 14:57 55.64225 12.90805 10502 ft 297 kts 162°
2026-05-06 14:57 55.62787 12.91531 10762 ft 311 kts 169°
2026-05-06 14:58 55.60574 12.91571 11036 ft 329 kts 194°
2026-05-06 14:58 55.58470 12.89827 11328 ft 345 kts 218°
2026-05-06 14:58 55.56694 12.86852 11669 ft 358 kts 227°
2026-05-06 14:58 55.54957 12.83583 12097 ft 369 kts 229°
2026-05-06 14:59 55.53192 12.80276 12701 ft 373 kts 228°
2026-05-06 14:59 55.51408 12.76905 13275 ft 379 kts 230°
2026-05-06 14:59 55.49689 12.73336 13927 ft 381 kts 231°
2026-05-06 14:59 55.47985 12.69727 14548 ft 384 kts 231°
2026-05-06 15:00 55.46266 12.66096 15096 ft 388 kts 231°
2026-05-06 15:00 55.44525 12.62433 15651 ft 392 kts 231°
2026-05-06 15:00 55.42764 12.58742 16261 ft 395 kts 231°
2026-05-06 15:00 55.41017 12.55090 16917 ft 396 kts 231°
2026-05-06 15:01 55.39230 12.51362 17408 ft 401 kts 231°
2026-05-06 15:01 55.37420 12.47591 17884 ft 406 kts 231°
2026-05-06 15:01 55.35595 12.43798 18429 ft 407 kts 231°
2026-05-06 15:01 55.33763 12.39993 18927 ft 409 kts 230°
2026-05-06 15:02 55.31915 12.36164 19350 ft 413 kts 230°
2026-05-06 15:02 55.30050 12.32307 19832 ft 414 kts 230°
2026-05-06 15:02 55.28182 12.28447 20325 ft 416 kts 230°
2026-05-06 15:02 55.26301 12.24566 20792 ft 418 kts 230°
2026-05-06 15:03 55.24410 12.20676 21263 ft 420 kts 230°
2026-05-06 15:03 55.22515 12.16780 21818 ft 420 kts 230°
2026-05-06 15:03 55.20538 12.13005 22298 ft 422 kts 225°
2026-05-06 15:03 55.18297 12.09659 22730 ft 425 kts 219°
2026-05-06 15:04 55.15919 12.06572 23188 ft 427 kts 218°
2026-05-06 15:04 55.13512 12.03516 23588 ft 429 kts 217°
2026-05-06 15:04 55.11909 12.01483 23795 ft 430 kts 217°
2026-05-06 15:04 55.09477 11.98396 24113 ft 433 kts 217°
2026-05-06 15:05 55.07044 11.95306 24419 ft 435 kts 217°
2026-05-06 15:05 55.04588 11.92189 24730 ft 437 kts 217°
2026-05-06 15:05 55.02129 11.89067 25036 ft 438 kts 217°
2026-05-06 15:05 54.99659 11.85936 25337 ft 440 kts 217°
2026-05-06 15:06 54.97173 11.82789 25605 ft 442 kts 217°
2026-05-06 15:06 54.94682 11.79641 25871 ft 443 kts 217°
2026-05-06 15:06 54.92173 11.76474 26046 ft 448 kts 216°
2026-05-06 15:06 54.89679 11.73330 26288 ft 450 kts 216°
2026-05-06 15:07 54.87132 11.70126 26557 ft 451 kts 216°
2026-05-06 15:07 54.84590 11.66934 26810 ft 452 kts 216°
2026-05-06 15:07 54.82040 11.63736 27146 ft 452 kts 216°
2026-05-06 15:07 54.79495 11.60548 27513 ft 450 kts 216°
2026-05-06 15:08 54.76961 11.57377 27893 ft 449 kts 216°
2026-05-06 15:08 54.74426 11.54211 28262 ft 448 kts 216°
2026-05-06 15:08 54.71903 11.51067 28634 ft 447 kts 215°
2026-05-06 15:08 54.69366 11.47910 28873 ft 449 kts 215°
2026-05-06 15:09 54.66823 11.44753 29177 ft 450 kts 215°
2026-05-06 15:09 54.64285 11.41604 29575 ft 449 kts 214°
2026-05-06 15:09 54.61751 11.38467 29964 ft 447 kts 214°
2026-05-06 15:09 54.59225 11.35342 30335 ft 445 kts 215°
2026-05-06 15:10 54.56730 11.32259 30916 ft 438 kts 215°
2026-05-06 15:10 54.54261 11.29225 31341 ft 435 kts 214°
2026-05-06 15:10 54.51795 11.26215 31667 ft 434 kts 214°
2026-05-06 15:10 54.49327 11.23214 31981 ft 434 kts 214°
2026-05-06 15:11 54.46866 11.20227 32208 ft 435 kts 214°
2026-05-06 15:11 54.44378 11.17213 32407 ft 437 kts 214°
2026-05-06 15:11 54.41894 11.14205 32756 ft 436 kts 214°
2026-05-06 15:11 54.39419 11.11212 33116 ft 434 kts 214°
2026-05-06 15:12 54.36982 11.08270 33484 ft 433 kts 214°
2026-05-06 15:12 54.34525 11.05310 33809 ft 432 kts 214°
2026-05-06 15:12 54.31953 11.02637 33889 ft 431 kts 207°
2026-05-06 15:13 54.26343 10.99331 33904 ft 426 kts 193°
2026-05-06 15:13 54.20500 10.97508 33894 ft 428 kts 190°
2026-05-06 15:14 54.14606 10.95934 33888 ft 429 kts 189°
2026-05-06 15:14 54.08704 10.94345 33887 ft 429 kts 190°
2026-05-06 15:15 54.02799 10.92712 33890 ft 429 kts 190°
2026-05-06 15:15 53.96896 10.91063 33889 ft 431 kts 190°
2026-05-06 15:16 53.90970 10.89408 33886 ft 432 kts 190°
2026-05-06 15:16 53.85067 10.87768 33888 ft 432 kts 190°
2026-05-06 15:17 53.79129 10.86123 33882 ft 432 kts 190°
2026-05-06 15:17 53.73191 10.84483 33877 ft 433 kts 190°
2026-05-06 15:18 53.67222 10.82839 33887 ft 435 kts 190°
2026-05-06 15:18 53.61242 10.81197 33875 ft 435 kts 190°
2026-05-06 15:19 53.55264 10.79561 33875 ft 435 kts 190°
2026-05-06 15:19 53.49282 10.77927 33866 ft 435 kts 190°
2026-05-06 15:20 53.43313 10.76303 33850 ft 435 kts 190°
2026-05-06 15:20 53.37338 10.74682 33854 ft 435 kts 190°
2026-05-06 15:21 53.31368 10.73067 33841 ft 435 kts 190°
2026-05-06 15:21 53.25392 10.71455 33824 ft 434 kts 191°
2026-05-06 15:22 53.19441 10.69853 33838 ft 432 kts 191°
2026-05-06 15:22 53.13546 10.68271 33832 ft 432 kts 191°
2026-05-06 15:23 53.07610 10.66682 33835 ft 432 kts 191°
2026-05-06 15:23 53.01679 10.65099 33834 ft 432 kts 191°
2026-05-06 15:24 52.95748 10.63520 33824 ft 432 kts 191°
2026-05-06 15:24 52.89815 10.61946 33829 ft 432 kts 191°
2026-05-06 15:25 52.83884 10.60377 33825 ft 432 kts 191°
2026-05-06 15:25 52.77953 10.58812 33812 ft 432 kts 191°
2026-05-06 15:26 52.72011 10.57248 33824 ft 431 kts 191°
2026-05-06 15:26 52.66086 10.55693 33813 ft 431 kts 191°
2026-05-06 15:27 52.60194 10.54151 33812 ft 431 kts 191°
2026-05-06 15:27 52.54258 10.52602 33808 ft 431 kts 191°
2026-05-06 15:28 52.48341 10.51056 33801 ft 430 kts 191°
2026-05-06 15:28 52.42451 10.49528 33801 ft 427 kts 191°
2026-05-06 15:29 52.36575 10.48010 33798 ft 427 kts 191°
2026-05-06 15:29 52.30701 10.46494 33800 ft 427 kts 191°
2026-05-06 15:30 52.24837 10.44984 33802 ft 426 kts 191°
2026-05-06 15:30 52.18971 10.43477 33800 ft 426 kts 191°
2026-05-06 15:31 52.13146 10.41984 33798 ft 426 kts 191°
2026-05-06 15:31 52.07288 10.40487 33795 ft 426 kts 191°
2026-05-06 15:32 51.98507 10.38252 33789 ft 425 kts 191°
2026-05-06 15:32 51.92668 10.36770 33788 ft 425 kts 191°
2026-05-06 15:33 51.86865 10.35301 33782 ft 424 kts 191°
2026-05-06 15:33 51.81029 10.33828 33782 ft 424 kts 191°
2026-05-06 15:34 51.75196 10.32359 33784 ft 425 kts 191°
2026-05-06 15:34 51.69352 10.30891 33774 ft 425 kts 191°
2026-05-06 15:35 51.63511 10.29428 33767 ft 425 kts 191°
2026-05-06 15:35 51.57672 10.27969 33762 ft 425 kts 191°
2026-05-06 15:36 51.51802 10.26505 33767 ft 427 kts 191°
2026-05-06 15:36 51.45920 10.25038 33773 ft 431 kts 191°
2026-05-06 15:37 51.41497 10.23940 33769 ft 432 kts 191°
2026-05-06 15:37 51.37815 10.23031 33767 ft 432 kts 191°
2026-05-06 15:38 51.31811 10.21976 33769 ft 432 kts 185°
2026-05-06 15:38 51.25800 10.21727 33659 ft 431 kts 184°
2026-05-06 15:39 51.22807 10.21669 32855 ft 428 kts 183°
2026-05-06 15:39 51.19824 10.21622 31876 ft 429 kts 183°
2026-05-06 15:39 51.16819 10.21574 30771 ft 433 kts 183°
2026-05-06 15:39 51.13815 10.21525 30051 ft 429 kts 183°
2026-05-06 15:40 51.10863 10.21479 29383 ft 421 kts 182°
2026-05-06 15:40 51.07956 10.21433 28750 ft 414 kts 182°